This is the latest recevied weather packets stored in our database for station/object AB4KN. If no packets are shown the sender has not sent any weather packets the latest 10 day(s).
| Time | Temp. | Humidity | Pressure | Rain* | Wind** | Luminosity | Snow |
|---|---|---|---|---|---|---|---|
| 1777764500 | 17.78° C | 39% | 1018.7 hPa | 0 mm | - | 7 W/m² | - |
| 1777764196 | 17.78° C | 38% | 1018.6 hPa | 0 mm | - | 8 W/m² | - |
| 1777763892 | 17.78° C | 38% | 1018.7 hPa | 0 mm | - | 9 W/m² | - |
| 1777763590 | 17.78° C | 36% | 1018.3 hPa | 0 mm | - | 9 W/m² | - |
| 1777763288 | 17.78° C | 36% | 1018.6 hPa | 0 mm | - | 10 W/m² | - |
| 1777762986 | 17.78° C | 36% | 1018.5 hPa | 0 mm | - | 10 W/m² | - |
| 1777762683 | 17.78° C | 37% | 1018.5 hPa | 0 mm | - | 11 W/m² | - |
| 1777762379 | 17.78° C | 34% | 1018.6 hPa | 0 mm | - | 11 W/m² | - |
| 1777762076 | 18.33° C | 33% | 1018.5 hPa | 0 mm | - | 12 W/m² | - |
| 1777761772 | 18.33° C | 32% | 1018.4 hPa | 0 mm | - | 12 W/m² | - |
| 1777761470 | 18.33° C | 33% | 1018.4 hPa | 0 mm | - | 12 W/m² | - |
| 1777761168 | 18.33° C | 35% | 1018.3 hPa | 0 mm | - | 13 W/m² | - |
| 1777760865 | 18.89° C | 34% | 1018.4 hPa | 0 mm | - | 13 W/m² | - |
| 1777760562 | 18.89° C | 34% | 1018.4 hPa | 0 mm | - | 13 W/m² | - |
| 1777760258 | 18.89° C | 34% | 1018.2 hPa | 0 mm | - | 13 W/m² | - |
| 1777759955 | 18.89° C | 32% | 1018 hPa | 0 mm | - | 14 W/m² | - |
| 1777759651 | 18.89° C | 33% | 1018.2 hPa | 0 mm | - | 15 W/m² | - |
| 1777759347 | 18.89° C | 37% | 1017.8 hPa | 0 mm | - | 15 W/m² | - |
| 1777759044 | 18.89° C | 34% | 1017.9 hPa | 0 mm | - | 16 W/m² | - |
| 1777758741 | 18.89° C | 34% | 1018.2 hPa | 0 mm | - | 16 W/m² | - |
| 1777758439 | 19.44° C | 34% | 1017.9 hPa | 0 mm | - | 16 W/m² | - |
| 1777758136 | 19.44° C | 34% | 1018 hPa | 0 mm | - | 17 W/m² | - |
| 1777757833 | 19.44° C | 34% | 1017.9 hPa | 0 mm | - | 17 W/m² | - |
| 1777757530 | 19.44° C | 33% | 1017.5 hPa | 0 mm | - | 17 W/m² | - |
| 1777757229 | 19.44° C | 35% | 1017.7 hPa | 0 mm | - | 18 W/m² | - |
* Rain latest hour (hover to see other rain measurements)
** Current wind speed in m/s (hover to see current wind gust speed)